Вернуться в каталог

STARLINK-32809

АктивенСвязьVLEO
NORAD 62849·PAYLOAD·🇺🇸 United States

Запущен Jan 27, 2025 с Cape Canaveral Space Force Station

Loading…

Ближайшие Пролёты (ближайшие 24 часа)

TLE

СвежийSource: CelesTrak SupGP

Эпоха: Sep 14, 2026, 21:18 UTC

1 62849C 25019W   26257.88798611  .00017251  00000+0  62509-3 0  2573
2 62849  42.9997 100.1842 0001494 271.6971 312.0120 15.27556002    11

Отслеживайте STARLINK-32809 в реальном времени с AllMySat

Download on the App Store